Dades meteomassalio
Diari Summary for Maig 12, 2017 Units:  Metric    English   Both
« Previous Day
Next Day »
Diari Semanal Mensual Anual Personalitzat
  Maxima: Minima: Mijana:
Temperatura: 24.6 °C 10.3 °C 18.5 °C
Rosada: 11.6 °C 7.4 °C 8.6 °C
Humitat: 85 % 35 % 55 %
Velocitat del vent: 33.8 km/h 0.0 km/h 8.6 km/h
Racha vent: 33.8 km/h - -
Vent:- - WSW
Pressio: 1011.7 hPa 1003.3 hPa -
Pluja: 0.0 mm    
Historical Graphs
 
 
Tabular Data for Maig 12, 2017
Time Temperature Dew Point Pressure Wind Wind Speed Wind Gust Humidity Rainfall Rate (Hourly) solar Conditions
00:00 19.1 °C 7.8 °C 1003.3 hPa West 22.2 km/h 22.2 km/h 48 % 0.0 mm 0.0 W/m2 RA
00:05 19.0 °C 7.7 °C 1003.3 hPa West 27.8 km/h 27.8 km/h 48 % 0.0 mm 0.0 W/m2 CLR
00:10 18.9 °C 8.0 °C 1003.6 hPa West 20.4 km/h 20.4 km/h 49 % 0.0 mm 0.0 W/m2 CLR
00:15 18.8 °C 7.9 °C 1003.6 hPa West 22.2 km/h 22.2 km/h 49 % 0.0 mm 0.0 W/m2 CLR
00:20 18.7 °C 8.1 °C 1003.3 hPa West 27.8 km/h 27.8 km/h 50 % 0.0 mm 0.0 W/m2 CLR
00:25 18.6 °C 7.9 °C 1003.3 hPa WSW 25.9 km/h 25.9 km/h 50 % 0.0 mm 0.0 W/m2 CLR
00:30 18.5 °C 7.9 °C 1003.3 hPa West 24.1 km/h 24.1 km/h 50 % 0.0 mm 0.0 W/m2 CLR
00:35 18.4 °C 8.1 °C 1003.6 hPa WSW 22.2 km/h 22.2 km/h 51 % 0.0 mm 0.0 W/m2 CLR
00:40 18.2 °C 8.2 °C 1003.6 hPa West 20.4 km/h 20.4 km/h 52 % 0.0 mm 0.0 W/m2 CLR
00:46 18.2 °C 8.2 °C 1003.3 hPa WNW 25.9 km/h 25.9 km/h 52 % 0.0 mm 0.0 W/m2 CLR
00:51 18.2 °C 8.2 °C 1003.3 hPa West 24.1 km/h 24.1 km/h 52 % 0.0 mm 0.0 W/m2 CLR
00:56 18.2 °C 8.2 °C 1003.3 hPa West 27.8 km/h 27.8 km/h 52 % 0.0 mm 0.0 W/m2 CLR
01:01 18.2 °C 8.2 °C 1003.6 hPa West 18.5 km/h 18.5 km/h 52 % 0.0 mm 0.0 W/m2 CLR
01:06 18.1 °C 8.3 °C 1003.6 hPa West 18.5 km/h 18.5 km/h 53 % 0.0 mm 0.0 W/m2 CLR
01:11 17.9 °C 8.2 °C 1003.6 hPa WNW 18.5 km/h 18.5 km/h 53 % 0.0 mm 0.0 W/m2 CLR
01:16 17.8 °C 8.1 °C 1003.6 hPa WNW 16.7 km/h 16.7 km/h 53 % 0.0 mm 0.0 W/m2 CLR
01:21 17.5 °C 8.1 °C 1003.6 hPa WNW 16.7 km/h 16.7 km/h 54 % 0.0 mm 0.0 W/m2 CLR
01:26 17.4 °C 8.3 °C 1003.9 hPa WNW 20.4 km/h 20.4 km/h 55 % 0.0 mm 0.0 W/m2 CLR
01:31 17.3 °C 8.2 °C 1003.9 hPa WNW 16.7 km/h 16.7 km/h 55 % 0.0 mm 0.0 W/m2 CLR
01:36 17.1 °C 8.4 °C 1003.9 hPa NW 16.7 km/h 16.7 km/h 57 % 0.0 mm 0.0 W/m2 CLR
01:41 16.9 °C 8.3 °C 1003.9 hPa WNW 16.7 km/h 16.7 km/h 57 % 0.0 mm 0.0 W/m2 CLR
01:46 16.8 °C 8.2 °C 1003.9 hPa WNW 16.7 km/h 17.2 km/h 57 % 0.0 mm 0.0 W/m2 CLR
01:51 16.8 °C 8.2 °C 1003.9 hPa NW 18.5 km/h 18.5 km/h 57 % 0.0 mm 0.0 W/m2 CLR
01:56 16.8 °C 8.4 °C 1003.9 hPa WNW 20.4 km/h 20.4 km/h 58 % 0.0 mm 0.0 W/m2 CLR
02:01 16.8 °C 8.2 °C 1003.6 hPa WNW 20.4 km/h 20.4 km/h 57 % 0.0 mm 0.0 W/m2 CLR
02:06 16.7 °C 8.2 °C 1003.9 hPa WNW 20.4 km/h 20.4 km/h 57 % 0.0 mm 0.0 W/m2 CLR
02:11 16.7 °C 8.1 °C 1003.9 hPa NW 18.5 km/h 18.5 km/h 57 % 0.0 mm 0.0 W/m2 CLR
02:16 16.6 °C 8.3 °C 1003.6 hPa NW 13.0 km/h 13.0 km/h 58 % 0.0 mm 0.0 W/m2 CLR
02:21 16.3 °C 8.3 °C 1003.6 hPa WNW 16.7 km/h 16.7 km/h 59 % 0.0 mm 0.0 W/m2 CLR
02:26 16.1 °C 8.3 °C 1003.6 hPa West 18.5 km/h 18.5 km/h 60 % 0.0 mm 0.0 W/m2 CLR
02:31 16.3 °C 8.1 °C 1003.6 hPa WNW 18.5 km/h 18.5 km/h 58 % 0.0 mm 0.0 W/m2 CLR
02:36 16.7 °C 8.2 °C 1003.6 hPa WNW 20.4 km/h 20.4 km/h 57 % 0.0 mm 0.0 W/m2 CLR
02:41 16.8 °C 8.0 °C 1003.6 hPa WNW 18.5 km/h 18.5 km/h 56 % 0.0 mm 0.0 W/m2 CLR
02:46 16.7 °C 8.2 °C 1003.9 hPa WNW 16.7 km/h 16.7 km/h 57 % 0.0 mm 0.0 W/m2 CLR
02:51 16.6 °C 8.1 °C 1003.9 hPa WNW 14.8 km/h 14.8 km/h 57 % 0.0 mm 0.0 W/m2 CLR
02:56 16.4 °C 8.1 °C 1003.9 hPa WNW 5.6 km/h 5.6 km/h 58 % 0.0 mm 0.0 W/m2 CLR
03:01 16.1 °C 8.1 °C 1003.6 hPa Calm     59 % 0.0 mm 0.0 W/m2 CLR
03:06 15.7 °C 8.0 °C 1003.9 hPa Calm     60 % 0.0 mm 0.0 W/m2 CLR
03:11 15.5 °C 8.2 °C 1003.6 hPa Calm     62 % 0.0 mm 0.0 W/m2 CLR
03:16 15.3 °C 8.3 °C 1003.6 hPa Calm     63 % 0.0 mm 0.0 W/m2 CLR
03:21 15.1 °C 8.3 °C 1003.6 hPa Calm     64 % 0.0 mm 0.0 W/m2 CLR
03:26 14.9 °C 8.6 °C 1003.6 hPa Calm     66 % 0.0 mm 0.0 W/m2 CLR
03:31 14.5 °C 8.7 °C 1003.9 hPa Calm     68 % 0.0 mm 0.0 W/m2 CLR
03:36 14.2 °C 8.4 °C 1003.9 hPa Calm     68 % 0.0 mm 0.0 W/m2 CLR
03:41 14.1 °C 8.2 °C 1003.9 hPa Calm     68 % 0.0 mm 0.0 W/m2 CLR
03:46 13.9 °C 8.1 °C 1003.9 hPa Calm     68 % 0.0 mm 0.0 W/m2 CLR
03:51 13.8 °C 8.2 °C 1003.9 hPa Calm     69 % 0.0 mm 0.0 W/m2 CLR
03:56 13.6 °C 8.2 °C 1004.3 hPa Calm     70 % 0.0 mm 0.0 W/m2 CLR
04:01 13.3 °C 8.2 °C 1004.3 hPa Calm     71 % 0.0 mm 0.0 W/m2 CLR
04:06 13.1 °C 8.2 °C 1004.3 hPa Calm     72 % 0.0 mm 0.0 W/m2 CLR
04:11 12.9 °C 8.0 °C 1004.3 hPa Calm     72 % 0.0 mm 0.0 W/m2 CLR
04:16 12.9 °C 8.2 °C 1004.3 hPa Calm     73 % 0.0 mm 0.0 W/m2 CLR
04:21 12.8 °C 8.1 °C 1004.3 hPa Calm     73 % 0.0 mm 0.0 W/m2 CLR
04:26 12.7 °C 8.3 °C 1004.3 hPa Calm     75 % 0.0 mm 0.0 W/m2 CLR
04:31 12.2 °C 8.1 °C 1004.3 hPa Calm     76 % 0.0 mm 0.0 W/m2 CLR
04:36 11.8 °C 8.1 °C 1004.3 hPa Calm     78 % 0.0 mm 0.0 W/m2 CLR
04:41 11.7 °C 8.2 °C 1004.3 hPa Calm     79 % 0.0 mm 0.0 W/m2 CLR
04:46 11.6 °C 8.1 °C 1004.3 hPa Calm     79 % 0.0 mm 0.0 W/m2 CLR
04:51 11.4 °C 8.1 °C 1004.3 hPa Calm     80 % 0.0 mm 0.0 W/m2 CLR
04:56 11.3 °C 8.0 °C 1004.3 hPa Calm     80 % 0.0 mm 0.0 W/m2 CLR
05:01 11.2 °C 8.1 °C 1004.3 hPa Calm     81 % 0.0 mm 0.0 W/m2 CLR
05:06 11.2 °C 8.0 °C 1004.3 hPa Calm     81 % 0.0 mm 0.0 W/m2 CLR
05:11 11.1 °C 7.9 °C 1004.3 hPa Calm     81 % 0.0 mm 0.0 W/m2 CLR
05:16 10.9 °C 7.9 °C 1004.3 hPa Calm     82 % 0.0 mm 0.0 W/m2 CLR
05:21 10.8 °C 7.9 °C 1004.3 hPa Calm     82 % 0.0 mm 0.0 W/m2 CLR
05:26 10.8 °C 7.8 °C 1004.3 hPa Calm     82 % 0.0 mm 0.0 W/m2 CLR
05:31 10.7 °C 7.9 °C 1004.3 hPa Calm     83 % 0.0 mm 0.0 W/m2 CLR
05:36 10.6 °C 7.8 °C 1004.3 hPa Calm     83 % 0.0 mm 0.0 W/m2 CLR
05:41 10.5 °C 7.9 °C 1004.3 hPa Calm     84 % 0.0 mm 0.0 W/m2 CLR
05:46 10.4 °C 7.8 °C 1004.3 hPa Calm     84 % 0.0 mm 0.0 W/m2 CLR
05:51 10.4 °C 7.8 °C 1004.3 hPa Calm     84 % 0.0 mm 0.0 W/m2 CLR
05:56 10.4 °C 7.8 °C 1004.3 hPa Calm     84 % 0.0 mm 0.0 W/m2 CLR
06:01 10.3 °C 7.9 °C 1004.3 hPa Calm     85 % 0.0 mm 0.0 W/m2 CLR
06:06 10.4 °C 7.8 °C 1004.6 hPa Calm     84 % 0.0 mm 0.0 W/m2 CLR
06:11 10.4 °C 7.7 °C 1004.6 hPa Calm     83 % 0.0 mm 0.0 W/m2 CLR
06:16 10.6 °C 7.8 °C 1004.3 hPa Calm     83 % 0.0 mm 0.0 W/m2 CLR
06:21 10.7 °C 7.9 °C 1004.6 hPa Calm     83 % 0.0 mm 0.0 W/m2 CLR
06:26 10.7 °C 7.9 °C 1004.6 hPa Calm     83 % 0.0 mm 0.0 W/m2 CLR
06:32 10.7 °C 7.9 °C 1004.6 hPa Calm     83 % 0.0 mm 0.0 W/m2 CLR
06:37 10.7 °C 8.1 °C 1005.0 hPa Calm     84 % 0.0 mm 7.0 W/m2 OVC
06:42 10.7 °C 8.1 °C 1005.0 hPa Calm     84 % 0.0 mm 14.0 W/m2 OVC
06:47 10.6 °C 8.0 °C 1005.0 hPa Calm     84 % 0.0 mm 18.0 W/m2 OVC
06:52 10.6 °C 8.0 °C 1005.0 hPa Calm     84 % 0.0 mm 19.0 W/m2 BKN
06:57 10.6 °C 7.8 °C 1005.0 hPa Calm     83 % 0.0 mm 18.0 W/m2 BKN
07:02 10.7 °C 8.1 °C 1005.3 hPa Calm     84 % 0.0 mm 18.0 W/m2 BKN
07:07 10.7 °C 8.1 °C 1005.3 hPa Calm     84 % 0.0 mm 23.0 W/m2 BKN
07:12 10.8 °C 8.2 °C 1005.0 hPa Calm     84 % 0.0 mm 25.0 W/m2 BKN
07:17 10.9 °C 8.3 °C 1005.3 hPa Calm     84 % 0.0 mm 21.0 W/m2 BKN
07:22 11.1 °C 8.3 °C 1005.3 hPa Calm     83 % 0.0 mm 33.0 W/m2 BKN
07:27 11.2 °C 8.4 °C 1005.3 hPa Calm     83 % 0.0 mm 32.0 W/m2 BKN
07:32 11.3 °C 8.3 °C 1005.3 hPa Calm     82 % 0.0 mm 32.0 W/m2 BKN
07:37 11.4 °C 8.4 °C 1005.3 hPa Calm     82 % 0.0 mm 40.0 W/m2 BKN
07:42 11.4 °C 8.4 °C 1005.3 hPa Calm     82 % 0.0 mm 63.0 W/m2 SCT
07:47 11.4 °C 8.5 °C 1005.6 hPa Calm     82 % 0.0 mm 74.0 W/m2 SCT
07:52 11.6 °C 8.6 °C 1005.6 hPa Calm     82 % 0.0 mm 72.0 W/m2 FEW
07:57 11.7 °C 8.9 °C 1005.6 hPa Calm     83 % 0.0 mm 70.0 W/m2 FEW
08:02 11.8 °C 8.8 °C 1005.6 hPa Calm     82 % 0.0 mm 67.0 W/m2 FEW
08:07 12.0 °C 9.0 °C 1005.6 hPa Calm     82 % 0.0 mm 72.0 W/m2 FEW
08:12 12.1 °C 8.9 °C 1005.6 hPa Calm     81 % 0.0 mm 83.0 W/m2 FEW
08:17 12.3 °C 9.2 °C 1005.6 hPa Calm     81 % 0.0 mm 179.0 W/m2 FEW
08:22 12.7 °C 9.3 °C 1005.6 hPa Calm     80 % 0.0 mm 225.0 W/m2 CLR
08:27 13.1 °C 9.3 °C 1005.6 hPa Calm     78 % 0.0 mm 197.0 W/m2 CLR
08:32 13.4 °C 9.2 °C 1005.6 hPa Calm     76 % 0.0 mm 253.0 W/m2 CLR
08:37 13.8 °C 9.7 °C 1005.6 hPa Calm     76 % 0.0 mm 304.0 W/m2 CLR
08:38 13.9 °C 9.8 °C 1005.6 hPa Calm     76 % 0.0 mm 311.0 W/m2 CLR
08:43 14.4 °C 9.8 °C 1005.6 hPa Calm     74 % 0.0 mm 336.0 W/m2 CLR
08:48 14.7 °C 9.7 °C 1005.6 hPa Calm     72 % 0.0 mm 352.0 W/m2 CLR
08:53 15.2 °C 9.5 °C 1005.6 hPa West 3.7 km/h 3.7 km/h 69 % 0.0 mm 390.0 W/m2 CLR
08:58 15.7 °C 9.6 °C 1005.6 hPa Calm     67 % 0.0 mm 374.0 W/m2 CLR
09:03 16.2 °C 9.8 °C 1005.6 hPa Calm     66 % 0.0 mm 427.0 W/m2 CLR
09:08 16.8 °C 9.9 °C 1005.6 hPa Calm     64 % 0.0 mm 373.0 W/m2 CLR
09:13 17.4 °C 9.6 °C 1005.6 hPa Calm     60 % 0.0 mm 478.0 W/m2 CLR
09:18 18.0 °C 10.4 °C 1005.6 hPa West 6.4 km/h 6.4 km/h 61 % 0.0 mm 471.0 W/m2 CLR
09:23 18.2 °C 8.4 °C 1005.6 hPa West 9.3 km/h 9.3 km/h 53 % 0.0 mm 520.0 W/m2 CLR
09:28 18.1 °C 8.1 °C 1005.6 hPa West 16.7 km/h 16.7 km/h 52 % 0.0 mm 343.0 W/m2 CLR
09:33 18.1 °C 8.4 °C 1005.6 hPa NW 11.3 km/h 11.3 km/h 53 % 0.0 mm 306.0 W/m2 CLR
09:38 18.1 °C 8.1 °C 1005.6 hPa WNW 11.1 km/h 11.1 km/h 52 % 0.0 mm 313.0 W/m2 CLR
09:43 18.1 °C 7.8 °C 1006.0 hPa West 14.8 km/h 14.8 km/h 51 % 0.0 mm 323.0 W/m2 CLR
09:48 18.1 °C 8.4 °C 1006.0 hPa NW 8.0 km/h 8.0 km/h 53 % 0.0 mm 367.0 W/m2 CLR
09:53 18.3 °C 8.6 °C 1005.6 hPa West 5.6 km/h 5.6 km/h 53 % 0.0 mm 441.0 W/m2 CLR
09:58 18.3 °C 8.0 °C 1005.6 hPa WNW 9.7 km/h 9.7 km/h 51 % 0.0 mm 570.0 W/m2 CLR
10:03 18.4 °C 8.3 °C 1006.0 hPa NW 7.4 km/h 7.4 km/h 52 % 0.0 mm 473.0 W/m2 CLR
10:08 18.6 °C 9.1 °C 1005.6 hPa NNW 7.4 km/h 7.4 km/h 54 % 0.0 mm 411.0 W/m2 CLR
10:13 18.7 °C 8.6 °C 1006.0 hPa NW 13.0 km/h 13.0 km/h 52 % 0.0 mm 594.0 W/m2 CLR
10:18 18.8 °C 9.0 °C 1006.0 hPa NW 16.7 km/h 16.7 km/h 53 % 0.0 mm 466.0 W/m2 CLR
10:23 18.8 °C 8.4 °C 1006.0 hPa NW 5.6 km/h 5.8 km/h 51 % 0.0 mm 378.0 W/m2 CLR
10:28 18.6 °C 8.8 °C 1006.0 hPa WNW 8.0 km/h 8.0 km/h 53 % 0.0 mm 385.0 W/m2 CLR
10:33 18.5 °C 8.4 °C 1006.0 hPa West 1.9 km/h 1.9 km/h 52 % 0.0 mm 360.0 W/m2 CLR
10:38 18.6 °C 8.5 °C 1006.0 hPa NW 6.4 km/h 6.4 km/h 52 % 0.0 mm 455.0 W/m2 CLR
10:43 18.7 °C 8.9 °C 1006.3 hPa NW 14.8 km/h 14.8 km/h 53 % 0.0 mm 608.0 W/m2 CLR
10:48 18.8 °C 8.8 °C 1006.3 hPa NW 9.3 km/h 9.3 km/h 52 % 0.0 mm 415.0 W/m2 CLR
10:53 18.7 °C 8.7 °C 1006.3 hPa NW 13.0 km/h 13.0 km/h 52 % 0.0 mm 394.0 W/m2 CLR
10:58 18.8 °C 8.7 °C 1006.3 hPa WNW 9.3 km/h 9.3 km/h 52 % 0.0 mm 443.0 W/m2 CLR
11:03 18.8 °C 7.9 °C 1006.3 hPa West 11.3 km/h 11.3 km/h 49 % 0.0 mm 534.0 W/m2 CLR
11:08 18.9 °C 8.5 °C 1006.3 hPa WSW 8.0 km/h 8.0 km/h 51 % 0.0 mm 599.0 W/m2 CLR
11:13 19.1 °C 8.7 °C 1006.3 hPa WNW 5.6 km/h 5.6 km/h 51 % 0.0 mm 657.0 W/m2 CLR
11:18 19.3 °C 8.6 °C 1006.3 hPa West 5.6 km/h 5.6 km/h 50 % 0.0 mm 431.0 W/m2 CLR
11:23 19.4 °C 8.4 °C 1006.3 hPa Calm     49 % 0.0 mm 322.0 W/m2 CLR
11:28 19.3 °C 8.7 °C 1006.7 hPa WNW 7.4 km/h 7.4 km/h 50 % 0.0 mm 385.0 W/m2 CLR
11:33 19.4 °C 8.2 °C 1006.7 hPa West 16.7 km/h 16.7 km/h 48 % 0.0 mm 599.0 W/m2 CLR
11:39 19.7 °C 8.3 °C 1006.3 hPa WSW 11.3 km/h 11.3 km/h 48 % 0.0 mm 896.0 W/m2 CLR
11:43 19.7 °C 8.9 °C 1006.3 hPa West 5.6 km/h 5.6 km/h 50 % 0.0 mm 341.0 W/m2 CLR
11:49 19.5 °C 8.5 °C 1006.3 hPa West 7.4 km/h 7.4 km/h 49 % 0.0 mm 570.0 W/m2 CLR
11:54 19.7 °C 8.4 °C 1006.3 hPa WNW 5.6 km/h 5.6 km/h 48 % 0.0 mm 838.0 W/m2 CLR
11:59 20.1 °C 8.8 °C 1006.7 hPa NW 16.7 km/h 16.7 km/h 48 % 0.0 mm 830.0 W/m2 CLR
12:04 20.3 °C 8.6 °C 1006.3 hPa WNW 14.8 km/h 14.8 km/h 47 % 0.0 mm 835.0 W/m2 CLR
12:09 20.4 °C 8.7 °C 1006.3 hPa NW 7.4 km/h 7.4 km/h 47 % 0.0 mm 835.0 W/m2 CLR
12:14 20.8 °C 8.7 °C 1006.3 hPa WNW 12.9 km/h 12.9 km/h 46 % 0.0 mm 858.0 W/m2 CLR
12:19 20.9 °C 8.8 °C 1006.3 hPa WNW 20.4 km/h 20.4 km/h 46 % 0.0 mm 879.0 W/m2 CLR
12:24 20.8 °C 8.4 °C 1006.3 hPa West 9.3 km/h 9.3 km/h 45 % 0.0 mm 946.0 W/m2 CLR
12:29 20.9 °C 8.5 °C 1006.3 hPa NW 9.7 km/h 9.7 km/h 45 % 0.0 mm 1071.0 W/m2 CLR
12:34 21.0 °C 8.3 °C 1006.3 hPa NW 7.4 km/h 7.4 km/h 44 % 0.0 mm 220.0 W/m2 CLR
12:39 21.3 °C 8.9 °C 1006.3 hPa NW 25.9 km/h 25.9 km/h 45 % 0.0 mm 378.0 W/m2 CLR
12:44 21.2 °C 9.1 °C 1006.3 hPa West 11.3 km/h 11.3 km/h 46 % 0.0 mm 397.0 W/m2 CLR
12:49 21.2 °C 8.1 °C 1006.3 hPa WNW 20.4 km/h 20.4 km/h 43 % 0.0 mm 425.0 W/m2 CLR
12:54 21.4 °C 8.6 °C 1006.3 hPa North 5.6 km/h 5.6 km/h 44 % 0.0 mm 371.0 W/m2 CLR
12:59 21.3 °C 8.2 °C 1006.7 hPa West 22.2 km/h 22.2 km/h 43 % 0.0 mm 360.0 W/m2 CLR
13:04 21.1 °C 8.0 °C 1006.7 hPa West 25.9 km/h 25.9 km/h 43 % 0.0 mm 348.0 W/m2 CLR
13:09 20.9 °C 8.5 °C 1006.3 hPa WNW 31.5 km/h 31.5 km/h 45 % 0.0 mm 306.0 W/m2 CLR
13:14 20.9 °C 9.2 °C 1006.7 hPa NW 8.0 km/h 8.0 km/h 47 % 0.0 mm 417.0 W/m2 CLR
13:19 20.9 °C 9.2 °C 1006.3 hPa WNW 5.6 km/h 5.6 km/h 47 % 0.0 mm 482.0 W/m2 CLR
13:24 21.6 °C 8.4 °C 1006.3 hPa West 20.4 km/h 20.4 km/h 43 % 0.0 mm 357.0 W/m2 CLR
13:29 21.8 °C 9.4 °C 1006.3 hPa NNW 18.5 km/h 18.5 km/h 45 % 0.0 mm 1100.0 W/m2 CLR
13:34 21.8 °C 8.3 °C 1006.3 hPa NNW 22.2 km/h 22.2 km/h 42 % 0.0 mm 334.0 W/m2 CLR
13:39 22.1 °C 9.2 °C 1006.3 hPa WNW 20.4 km/h 20.4 km/h 44 % 0.0 mm 1155.0 W/m2 CLR
13:44 22.4 °C 8.8 °C 1006.3 hPa NW 22.2 km/h 22.2 km/h 42 % 0.0 mm 1023.0 W/m2 CLR
13:49 22.3 °C 8.0 °C 1006.3 hPa NW 18.5 km/h 18.5 km/h 40 % 0.0 mm 956.0 W/m2 CLR
13:54 22.4 °C 8.1 °C 1006.3 hPa Calm     40 % 0.0 mm 1215.0 W/m2 CLR
13:59 22.4 °C 8.1 °C 1006.0 hPa WSW 11.1 km/h 11.1 km/h 40 % 0.0 mm 990.0 W/m2 CLR
14:04 22.7 °C 8.8 °C 1006.0 hPa WSW 13.0 km/h 13.0 km/h 41 % 0.0 mm 976.0 W/m2 CLR
14:09 22.8 °C 8.5 °C 1006.0 hPa North 5.6 km/h 5.6 km/h 40 % 0.0 mm 1023.0 W/m2 CLR
14:14 22.7 °C 8.4 °C 1006.0 hPa NW 20.4 km/h 20.4 km/h 40 % 0.0 mm 248.0 W/m2 CLR
14:19 22.4 °C 8.2 °C 1006.3 hPa NW 18.5 km/h 18.5 km/h 40 % 0.0 mm 299.0 W/m2 CLR
14:24 22.5 °C 8.6 °C 1006.3 hPa North 16.1 km/h 16.1 km/h 41 % 0.0 mm 371.0 W/m2 CLR
14:29 22.4 °C 8.1 °C 1006.0 hPa West 6.4 km/h 6.4 km/h 40 % 0.0 mm 338.0 W/m2 CLR
14:34 22.7 °C 8.8 °C 1006.0 hPa Calm     41 % 0.0 mm 1296.0 W/m2 CLR
14:39 23.1 °C 8.4 °C 1006.0 hPa NNW 8.0 km/h 8.0 km/h 39 % 0.0 mm 241.0 W/m2 CLR
14:44 22.7 °C 8.1 °C 1006.0 hPa NNW 25.9 km/h 25.9 km/h 39 % 0.0 mm 264.0 W/m2 CLR
14:49 22.3 °C 8.0 °C 1006.3 hPa NW 22.5 km/h 22.5 km/h 40 % 0.0 mm 250.0 W/m2 CLR
14:54 22.0 °C 8.1 °C 1006.3 hPa NW 18.5 km/h 18.5 km/h 41 % 0.0 mm 285.0 W/m2 CLR
14:59 22.0 °C 8.1 °C 1006.3 hPa NW 18.5 km/h 18.5 km/h 41 % 0.0 mm 455.0 W/m2 CLR
15:04 22.4 °C 8.5 °C 1006.3 hPa NNW 16.7 km/h 16.7 km/h 41 % 0.0 mm 418.0 W/m2 CLR
15:09 22.3 °C 8.1 °C 1006.0 hPa NNE 1.9 km/h 1.9 km/h 40 % 0.0 mm 413.0 W/m2 CLR
15:15 22.4 °C 8.1 °C 1006.0 hPa Calm     40 % 0.0 mm 482.0 W/m2 CLR
15:20 22.8 °C 8.5 °C 1006.0 hPa Calm   0.8 km/h 40 % 0.0 mm 1141.0 W/m2 CLR
15:25 23.4 °C 8.3 °C 1006.0 hPa ENE 7.4 km/h 7.4 km/h 38 % 0.0 mm 1099.0 W/m2 CLR
15:30 23.6 °C 8.8 °C 1006.0 hPa ENE 7.4 km/h 7.4 km/h 39 % 0.0 mm 580.0 W/m2 CLR
15:35 23.5 °C 8.7 °C 1005.6 hPa NNE 4.8 km/h 4.8 km/h 39 % 0.0 mm 580.0 W/m2 CLR
15:40 23.6 °C 8.4 °C 1005.6 hPa ENE 13.0 km/h 13.0 km/h 38 % 0.0 mm 339.0 W/m2 CLR
15:45 23.4 °C 8.7 °C 1005.6 hPa ENE 5.6 km/h   39 % 0.0 mm 281.0 W/m2 CLR
15:50 23.1 °C 8.0 °C 1005.6 hPa East 3.2 km/h 3.2 km/h 38 % 0.0 mm 380.0 W/m2 CLR
15:55 23.2 °C 8.4 °C 1005.6 hPa ENE 3.7 km/h 3.7 km/h 39 % 0.0 mm 1187.0 W/m2 CLR
16:00 23.3 °C 8.2 °C 1005.6 hPa East 9.3 km/h 9.3 km/h 38 % 0.0 mm 439.0 W/m2 CLR
16:05 23.6 °C 8.8 °C 1005.6 hPa NE 14.8 km/h 14.8 km/h 39 % 0.0 mm 1062.0 W/m2 CLR
16:10 23.8 °C 8.7 °C 1005.6 hPa ENE 11.1 km/h 11.1 km/h 38 % 0.0 mm 234.0 W/m2 CLR
16:15 23.6 °C 8.4 °C 1005.6 hPa NE 9.7 km/h 9.7 km/h 38 % 0.0 mm 260.0 W/m2 CLR
16:20 23.2 °C 8.1 °C 1005.6 hPa NE 5.6 km/h 5.6 km/h 38 % 0.0 mm 258.0 W/m2 CLR
16:25 23.1 °C 7.9 °C 1005.6 hPa ENE 5.6 km/h   38 % 0.0 mm 359.0 W/m2 CLR
16:30 23.0 °C 7.9 °C 1005.6 hPa ENE 6.4 km/h 6.4 km/h 38 % 0.0 mm 278.0 W/m2 CLR
16:35 23.2 °C 8.1 °C 1005.6 hPa East 7.4 km/h 7.4 km/h 38 % 0.0 mm 276.0 W/m2 CLR
16:40 23.2 °C 7.7 °C 1005.6 hPa SE 6.4 km/h 6.4 km/h 37 % 0.0 mm 241.0 W/m2 CLR
16:45 23.1 °C 8.0 °C 1005.6 hPa Calm     38 % 0.0 mm 225.0 W/m2 CLR
16:50 23.1 °C 7.6 °C 1005.3 hPa ENE 5.6 km/h 5.6 km/h 37 % 0.0 mm 220.0 W/m2 CLR
16:55 23.1 °C 8.3 °C 1005.3 hPa Calm     39 % 0.0 mm 213.0 W/m2 CLR
17:00 23.1 °C 7.6 °C 1005.3 hPa SW 5.6 km/h 5.6 km/h 37 % 0.0 mm 174.0 W/m2 CLR
17:05 23.0 °C 7.9 °C 1005.3 hPa Calm     38 % 0.0 mm 216.0 W/m2 CLR
17:10 23.0 °C 7.5 °C 1005.6 hPa Calm     37 % 0.0 mm 197.0 W/m2 CLR
17:15 23.1 °C 7.6 °C 1005.3 hPa SE 7.4 km/h 7.4 km/h 37 % 0.0 mm 142.0 W/m2 CLR
17:20 22.9 °C 7.4 °C 1005.3 hPa SE 7.4 km/h 7.4 km/h 37 % 0.0 mm 142.0 W/m2 CLR
17:25 22.9 °C 7.9 °C 1005.3 hPa SE 5.6 km/h 5.6 km/h 38 % 0.0 mm 139.0 W/m2 CLR
17:30 23.0 °C 7.9 °C 1005.3 hPa ENE 1.9 km/h 1.9 km/h 38 % 0.0 mm 218.0 W/m2 CLR
17:35 23.1 °C 8.3 °C 1005.6 hPa East 5.6 km/h 5.6 km/h 39 % 0.0 mm 285.0 W/m2 CLR
17:40 23.2 °C 8.5 °C 1005.6 hPa ENE 5.6 km/h 5.6 km/h 39 % 0.0 mm 248.0 W/m2 CLR
17:45 23.3 °C 8.2 °C 1005.6 hPa ENE 12.9 km/h 12.9 km/h 38 % 0.0 mm 292.0 W/m2 CLR
17:50 23.3 °C 8.6 °C 1005.6 hPa NE 9.3 km/h 9.3 km/h 39 % 0.0 mm 255.0 W/m2 CLR
17:55 23.3 °C 8.2 °C 1005.6 hPa ENE 11.1 km/h 11.1 km/h 38 % 0.0 mm 251.0 W/m2 CLR
18:00 23.4 °C 8.3 °C 1006.0 hPa ENE 11.1 km/h 11.1 km/h 38 % 0.0 mm 279.0 W/m2 CLR
18:05 23.5 °C 8.3 °C 1006.0 hPa ENE 5.6 km/h 5.6 km/h 38 % 0.0 mm 496.0 W/m2 CLR
18:10 23.6 °C 8.1 °C 1006.0 hPa Calm   0.2 km/h 37 % 0.0 mm 626.0 W/m2 CLR
18:15 23.9 °C 8.3 °C 1006.0 hPa Calm     37 % 0.0 mm 578.0 W/m2 CLR
18:20 24.1 °C 8.5 °C 1006.0 hPa Calm     37 % 0.0 mm 332.0 W/m2 CLR
18:25 24.2 °C 8.6 °C 1006.0 hPa Calm     37 % 0.0 mm 213.0 W/m2 CLR
18:30 24.2 °C 7.7 °C 1006.0 hPa Calm     35 % 0.0 mm 156.0 W/m2 CLR
18:35 24.0 °C 8.0 °C 1006.0 hPa Calm     36 % 0.0 mm 167.0 W/m2 CLR
18:40 24.0 °C 8.4 °C 1006.0 hPa Calm     37 % 0.0 mm 227.0 W/m2 CLR
18:45 23.9 °C 7.9 °C 1006.0 hPa West 1.9 km/h   36 % 0.0 mm 190.0 W/m2 CLR
18:50 23.9 °C 7.9 °C 1006.3 hPa Calm     36 % 0.0 mm 174.0 W/m2 CLR
18:55 23.8 °C 7.8 °C 1006.0 hPa Calm     36 % 0.0 mm 179.0 W/m2 CLR
19:00 23.9 °C 8.3 °C 1006.0 hPa Calm     37 % 0.0 mm 448.0 W/m2 CLR
19:05 24.4 °C 7.9 °C 1006.0 hPa ENE 5.6 km/h 5.6 km/h 35 % 0.0 mm 455.0 W/m2 CLR
19:10 24.6 °C 8.1 °C 1006.0 hPa North 24.1 km/h 24.1 km/h 35 % 0.0 mm 135.0 W/m2 CLR
19:15 24.1 °C 7.7 °C 1006.3 hPa WNW 24.1 km/h 24.1 km/h 35 % 0.0 mm 105.0 W/m2 CLR
19:20 23.7 °C 7.8 °C 1006.3 hPa WNW 9.3 km/h 9.3 km/h 36 % 0.0 mm 95.0 W/m2 CLR
19:25 23.4 °C 7.9 °C 1006.3 hPa WNW 11.1 km/h 11.1 km/h 37 % 0.0 mm 97.0 W/m2 CLR
19:30 23.3 °C 7.8 °C 1006.3 hPa WNW 18.5 km/h 18.5 km/h 37 % 0.0 mm 90.0 W/m2 CLR
19:35 23.3 °C 8.2 °C 1006.3 hPa NW 4.8 km/h 4.8 km/h 38 % 0.0 mm 90.0 W/m2 CLR
19:40 23.2 °C 8.1 °C 1006.3 hPa WNW 11.1 km/h 11.1 km/h 38 % 0.0 mm 79.0 W/m2 CLR
19:45 23.1 °C 7.6 °C 1006.7 hPa NW 9.3 km/h 9.3 km/h 37 % 0.0 mm 98.0 W/m2 CLR
19:50 23.1 °C 8.0 °C 1006.7 hPa NW 11.1 km/h 11.1 km/h 38 % 0.0 mm 91.0 W/m2 CLR
19:55 23.1 °C 7.9 °C 1006.7 hPa NW 7.4 km/h 7.4 km/h 38 % 0.0 mm 81.0 W/m2 CLR
20:00 23.0 °C 7.9 °C 1006.7 hPa NW 7.4 km/h 7.4 km/h 38 % 0.0 mm 54.0 W/m2 FEW
20:05 22.9 °C 7.9 °C 1007.0 hPa NW 9.7 km/h 9.7 km/h 38 % 0.0 mm 37.0 W/m2 SCT
20:10 22.8 °C 7.8 °C 1007.0 hPa NW 5.6 km/h 5.6 km/h 38 % 0.0 mm 25.0 W/m2 BKN
20:15 22.7 °C 8.1 °C 1007.0 hPa Calm     39 % 0.0 mm 18.0 W/m2 BKN
20:20 22.7 °C 8.0 °C 1007.0 hPa Calm     39 % 0.0 mm 11.0 W/m2 BKN
20:25 22.6 °C 8.3 °C 1007.3 hPa WNW 9.3 km/h 9.3 km/h 40 % 0.0 mm 5.0 W/m2 OVC
20:30 22.6 °C 8.3 °C 1007.3 hPa WNW 13.0 km/h 13.0 km/h 40 % 0.0 mm 5.0 W/m2 OVC
20:35 22.4 °C 8.5 °C 1007.3 hPa WNW 7.4 km/h 7.4 km/h 41 % 0.0 mm 5.0 W/m2 OVC
20:40 22.3 °C 8.8 °C 1007.7 hPa WNW 5.6 km/h 5.6 km/h 42 % 0.0 mm 7.0 W/m2 BKN
20:45 22.2 °C 8.3 °C 1007.7 hPa West 4.8 km/h 4.8 km/h 41 % 0.0 mm 5.0 W/m2 OVC
20:50 22.2 °C 8.3 °C 1007.7 hPa WNW 5.6 km/h 5.6 km/h 41 % 0.0 mm 0.0 W/m2 OVC
20:55 22.2 °C 8.7 °C 1008.0 hPa WNW 7.4 km/h 7.4 km/h 42 % 0.0 mm 0.0 W/m2 OVC
21:00 22.2 °C 8.7 °C 1008.0 hPa West 13.0 km/h 13.0 km/h 42 % 0.0 mm 0.0 W/m2 OVC
21:05 22.1 °C 8.9 °C 1008.4 hPa WNW 33.8 km/h 33.8 km/h 43 % 0.0 mm 0.0 W/m2 OVC
21:10 21.4 °C 9.3 °C 1008.7 hPa WNW 33.3 km/h 33.3 km/h 46 % 0.0 mm 0.0 W/m2 OVC
21:15 21.0 °C 9.3 °C 1008.7 hPa WNW 27.8 km/h 27.8 km/h 47 % 0.0 mm 0.0 W/m2 OVC
21:20 20.5 °C 9.4 °C 1008.7 hPa NW 22.2 km/h 22.2 km/h 49 % 0.0 mm 0.0 W/m2 CLR
21:25 20.1 °C 10.2 °C 1009.0 hPa WNW 19.3 km/h 19.3 km/h 53 % 0.0 mm 0.0 W/m2 CLR
21:30 19.7 °C 10.1 °C 1009.0 hPa WNW 18.5 km/h 18.5 km/h 54 % 0.0 mm 0.0 W/m2 CLR
21:35 19.4 °C 10.2 °C 1009.0 hPa NW 16.7 km/h 16.7 km/h 55 % 0.0 mm 0.0 W/m2 CLR
21:36 19.4 °C 10.1 °C 1009.0 hPa NW 14.8 km/h 14.8 km/h 55 % 0.0 mm 0.0 W/m2 CLR
21:41 19.2 °C 10.5 °C 1009.4 hPa NNW 3.7 km/h 3.7 km/h 57 % 0.0 mm 0.0 W/m2 CLR
21:46 19.1 °C 10.7 °C 1009.4 hPa Calm     58 % 0.0 mm 0.0 W/m2 CLR
21:51 18.9 °C 11.0 °C 1009.4 hPa Calm     60 % 0.0 mm 0.0 W/m2 CLR
21:56 18.7 °C 11.1 °C 1009.7 hPa Calm     61 % 0.0 mm 0.0 W/m2 CLR
22:01 18.6 °C 11.2 °C 1009.7 hPa Calm     62 % 0.0 mm 0.0 W/m2 CLR
22:06 18.5 °C 10.8 °C 1009.7 hPa Calm     61 % 0.0 mm 0.0 W/m2 CLR
22:11 18.4 °C 11.0 °C 1010.0 hPa Calm     62 % 0.0 mm 0.0 W/m2 CLR
22:16 18.4 °C 11.0 °C 1010.0 hPa Calm     62 % 0.0 mm 0.0 W/m2 CLR
22:21 18.4 °C 11.2 °C 1010.0 hPa Calm     63 % 0.0 mm 0.0 W/m2 CLR
22:22 18.4 °C 11.2 °C 1010.0 hPa Calm     63 % 0.0 mm 0.0 W/m2 CLR
22:26 18.3 °C 11.4 °C 1010.0 hPa Calm     64 % 0.0 mm 0.0 W/m2 CLR
22:31 18.2 °C 11.6 °C 1010.4 hPa Calm     65 % 0.0 mm 0.0 W/m2 CLR
22:36 18.1 °C 11.1 °C 1010.4 hPa Calm     64 % 0.0 mm 0.0 W/m2 CLR
22:41 18.4 °C 10.2 °C 1010.4 hPa WNW 6.4 km/h 6.4 km/h 59 % 0.0 mm 0.0 W/m2 CLR
22:46 18.8 °C 10.1 °C 1010.4 hPa WNW 13.0 km/h 13.0 km/h 57 % 0.0 mm 0.0 W/m2 CLR
22:51 19.2 °C 9.9 °C 1010.4 hPa West 14.8 km/h 14.8 km/h 55 % 0.0 mm 0.0 W/m2 CLR
22:56 19.4 °C 9.8 °C 1010.4 hPa WNW 22.2 km/h 22.2 km/h 54 % 0.0 mm 0.0 W/m2 CLR
23:01 19.4 °C 9.9 °C 1010.7 hPa WNW 20.9 km/h 20.9 km/h 54 % 0.0 mm 0.0 W/m2 CLR
23:06 19.3 °C 9.7 °C 1010.7 hPa West 18.5 km/h 18.5 km/h 54 % 0.0 mm 0.0 W/m2 CLR
23:11 19.1 °C 9.6 °C 1011.1 hPa WNW 13.0 km/h 13.0 km/h 54 % 0.0 mm 0.0 W/m2 CLR
23:12 19.1 °C 9.8 °C 1011.1 hPa WNW 13.0 km/h 13.0 km/h 55 % 0.0 mm 0.0 W/m2 CLR
23:17 18.9 °C 9.7 °C 1011.1 hPa WNW 16.7 km/h 16.7 km/h 55 % 0.0 mm 0.0 W/m2 CLR
23:22 18.8 °C 9.6 °C 1011.1 hPa West 18.5 km/h 18.5 km/h 55 % 0.0 mm 0.0 W/m2 CLR
23:23 18.8 °C 9.6 °C 1011.1 hPa WNW 13.0 km/h 13.0 km/h 55 % 0.0 mm 0.0 W/m2 CLR
23:28 18.7 °C 9.5 °C 1011.1 hPa West 18.5 km/h 18.5 km/h 55 % 0.0 mm 0.0 W/m2 CLR
23:33 18.6 °C 9.7 °C 1011.1 hPa West 22.2 km/h 22.2 km/h 56 % 0.0 mm 0.0 W/m2 CLR
23:38 18.6 °C 9.6 °C 1011.4 hPa West 25.9 km/h 25.9 km/h 56 % 0.0 mm 0.0 W/m2 CLR
23:43 18.6 °C 9.4 °C 1011.4 hPa West 24.1 km/h 24.1 km/h 55 % 0.0 mm 0.0 W/m2 CLR
23:48 18.6 °C 9.4 °C 1011.7 hPa WNW 18.5 km/h 18.5 km/h 55 % 0.0 mm 0.0 W/m2 CLR
23:53 18.5 °C 9.3 °C 1011.4 hPa WNW 14.8 km/h 14.8 km/h 55 % 0.0 mm 0.0 W/m2 CLR
23:58 18.4 °C 9.4 °C 1011.4 hPa WNW 9.3 km/h 9.3 km/h 56 % 0.0 mm 0.0 W/m2 CLR
Lo Temps de Massalio
Compliments of Weather Underground - 1.25 mb